Moosic, PA

8:33 AM EST on February 11, 2016 (GMT -0500)
Wilkes-Barre-Scranton International

Weather History for KAVP - October, 2012

Change the Weather History Date:

Wednesday, October 3, 2012

  Actual Average Record
Temperature  
Mean Temperature 68 °F 55 °F  
Max Temperature 74 °F 65 °F 84 °F (1919)
Min Temperature 62 °F 45 °F 30 °F (2003)
Degree Days  
Heating Degree Days 0 10  
Month to date heating degree days 12 29  
Since 1 July heating degree days 129 191  
Cooling Degree Days 3 0  
Month to date cooling degree days 3 0  
Year to date cooling degree days 864 576  
Growing Degree Days 18 (Base 50)    
Moisture  
Dew Point 64 °F    
Average Humidity 83    
Maximum Humidity 93    
Minimum Humidity 73    
Precipitation  
Precipitation 0.02 in 0.11 in 2.60 in (1927)
Month to date precipitation 0.70 0.34  
Year to date precipitation 28.05 29.44  
Sea Level Pressure  
Sea Level Pressure 30.05 in    
Wind  
Wind Speed 3 mph (WSW)    
Max Wind Speed 10 mph    
Max Gust Speed 14 mph    
Visibility 8 miles    
Events Rain    
T = Trace of Precipitation, MM = Missing Value Source: NWS Daily Summary

Daily Weather History Graph

Daily Weather History Graph

Search for Another Location

Airport or City:

Trip Planner

Search our weather history database for the weather conditions in past years. The results will help you decide how hot, cold, wet, or windy it might be!

Date:

Astronomy

Oct. 03, 2012 Rise Set
Actual Time 7:02 AM EDT 6:40 PM EDT
Civil Twilight 6:34 AM EDT 7:08 PM EDT
Nautical Twilight 6:02 AM EDT 7:40 PM EDT
Astronomical Twilight 5:30 AM EDT 8:12 PM EDT
Moon 8:28 PM EDT (10/3) 10:25 AM EDT (10/3)
Length of Visible Light 12h 33m
Length of Day
11h 38m
Waning Gibbous, 89% of the Moon is Illuminated
Oct 3
Waning Gibbous
Oct 8
Last Quarter
Oct 15
New
Oct 21
First Quarter
Oct 29
Full

Hourly Weather History & Observations

Time (EDT) Temp. Dew Point Humidity Pressure Visibility Wind Dir Wind Speed Gust Speed Precip Events Conditions
12:52 AM 62.6 °F 60.8 °F 94% 29.98 in 2.5 mi ENE 5.8 mph - 0.06 in Rain Light Rain
12:54 AM 63.0 °F 60.1 °F 90% 29.97 in 4.0 mi NE 4.6 mph - 0.06 in Rain Light Rain
1:54 AM 62.1 °F 60.1 °F 93% 29.97 in 8.0 mi NE 5.8 mph - 0.00 in   Overcast
2:54 AM 62.1 °F 60.1 °F 93% 29.98 in 9.0 mi Calm Calm - N/A   Overcast
3:54 AM 62.1 °F 60.1 °F 93% 29.98 in 10.0 mi ENE 4.6 mph - N/A   Overcast
4:54 AM 63.0 °F 60.1 °F 90% 29.99 in 10.0 mi NE 3.5 mph - N/A   Overcast
5:54 AM 63.0 °F 60.1 °F 90% 30.00 in 10.0 mi NE 3.5 mph - N/A   Overcast
6:54 AM 64.0 °F 61.0 °F 90% 30.01 in 10.0 mi NE 4.6 mph - N/A   Overcast
7:54 AM 64.9 °F 62.1 °F 90% 30.03 in 9.0 mi Calm Calm - N/A   Overcast
8:54 AM 64.9 °F 63.0 °F 93% 30.04 in 4.0 mi Calm Calm - 0.01 in Rain Light Rain
9:16 AM 64.4 °F 62.6 °F 94% 30.06 in 5.0 mi South 3.5 mph - 0.00 in   Overcast
9:54 AM 68.0 °F 64.0 °F 87% 30.04 in 8.0 mi Calm Calm - 0.01 in   Overcast
10:26 AM 66.2 °F 64.4 °F 94% 30.06 in 6.0 mi Calm Calm - N/A   Overcast
10:50 AM 68.0 °F 64.4 °F 88% 30.06 in 6.0 mi Calm Calm - N/A   Overcast
10:54 AM 68.0 °F 64.9 °F 90% 30.04 in 6.0 mi Calm Calm - N/A   Overcast
11:13 AM 69.8 °F 64.4 °F 83% 30.05 in 7.0 mi Calm Calm - N/A   Overcast
11:54 AM 70.0 °F 66.0 °F 87% 30.04 in 7.0 mi WNW 4.6 mph - N/A   Overcast
12:11 PM 69.8 °F 64.4 °F 83% 30.06 in 8.0 mi West 3.5 mph - N/A   Overcast
12:25 PM 71.6 °F 66.2 °F 83% 30.05 in 9.0 mi Calm Calm - N/A   Overcast
12:54 PM 71.1 °F 66.0 °F 84% 30.04 in 10.0 mi WNW 3.5 mph - N/A   Overcast
1:19 PM 71.6 °F 66.2 °F 83% 30.06 in 10.0 mi SW 4.6 mph - N/A   Overcast
1:28 PM 71.6 °F 66.2 °F 83% 30.06 in 10.0 mi Variable 4.6 mph - N/A   Overcast
1:54 PM 72.0 °F 66.0 °F 81% 30.04 in 10.0 mi SW 5.8 mph - N/A   Overcast
2:07 PM 71.6 °F 66.2 °F 83% 30.06 in 10.0 mi SW 5.8 mph - N/A   Overcast
2:51 PM 71.6 °F 64.4 °F 78% 30.06 in 10.0 mi SW 8.1 mph - N/A   Overcast
2:54 PM 72.0 °F 64.9 °F 78% 30.05 in 10.0 mi SW 5.8 mph - N/A   Overcast
3:54 PM 72.0 °F 64.9 °F 78% 30.04 in 10.0 mi SW 5.8 mph - N/A   Overcast
4:22 PM 73.4 °F 64.4 °F 73% 30.06 in 10.0 mi SW 5.8 mph - N/A   Mostly Cloudy
4:44 PM 73.4 °F 64.4 °F 73% 30.06 in 10.0 mi SW 5.8 mph - N/A   Scattered Clouds
4:54 PM 73.0 °F 64.9 °F 76% 30.04 in 10.0 mi WSW 6.9 mph - N/A   Scattered Clouds
5:13 PM 71.6 °F 64.4 °F 78% 30.07 in 9.0 mi WSW 8.1 mph - N/A   Mostly Cloudy
5:54 PM 71.1 °F 64.0 °F 78% 30.06 in 8.0 mi WSW 8.1 mph - N/A   Overcast
6:54 PM 70.0 °F 64.0 °F 81% 30.08 in 8.0 mi SW 3.5 mph - N/A   Overcast
7:13 PM 69.8 °F 64.4 °F 83% 30.09 in 8.0 mi Calm Calm - N/A   Scattered Clouds
7:54 PM 68.0 °F 64.0 °F 87% 30.09 in 7.0 mi SW 3.5 mph - N/A   Clear
8:54 PM 68.0 °F 64.0 °F 87% 30.10 in 8.0 mi Calm Calm - N/A   Clear
9:54 PM 68.0 °F 64.0 °F 87% 30.12 in 7.0 mi Calm Calm - N/A   Partly Cloudy
10:51 PM 66.2 °F 64.4 °F 94% 30.14 in 6.0 mi Calm Calm - N/A   Mostly Cloudy
10:54 PM 66.0 °F 64.0 °F 93% 30.12 in 6.0 mi Calm Calm - N/A   Mostly Cloudy
11:54 PM 66.0 °F 64.0 °F 93% 30.12 in 2.5 mi Calm Calm - N/A   Mostly Cloudy
11:57 PM 66.2 °F 64.4 °F 94% 30.14 in 3.0 mi Calm Calm - N/A   Mostly Cloudy